Theta_e
361 361 360 359 357 355 355 358 358 356 351 348 351 355 357 357 356 356 357 359 361 360 359 360 361 360 360 360 360 359 357 357 358 359 360 360 359 358 357 356 354 353
362 362 361 360 359 357 357 358 358 357 353 349 350 353 356 357 357 357 357 359 361 360 360 360 361 361 360 359 360 361 358 359 358 358 359 361 361 360 358 357 357 356
363 363 363 362 360 359 358 357 358 357 354 352 350 352 355 356 358 358 357 359 360 360 359 360 360 360 361 360 361 361 360 359 359 357 358 360 361 361 359 358 357 358
362 362 363 362 360 361 359 357 357 357 354 354 352 352 354 355 357 359 359 359 360 359 359 359 359 359 360 361 360 361 359 360 360 358 358 360 361 360 359 358 358 357
362 362 363 363 360 360 359 357 357 357 354 354 355 354 354 355 356 359 360 361 361 359 359 359 360 360 360 360 361 360 359 358 360 360 360 360 361 361 359 358 360 359
363 363 364 364 361 360 360 358 356 356 355 354 355 356 355 356 358 357 358 360 360 359 357 358 359 359 359 360 361 361 360 358 358 360 361 360 360 360 358 358 360 361
364 364 363 364 363 360 360 360 357 356 357 356 356 357 356 358 359 358 357 358 357 356 356 355 357 358 358 359 360 361 361 359 357 360 362 362 361 359 359 358 360 362
364 365 364 364 364 362 361 361 360 358 358 358 357 357 358 357 359 359 357 356 356 356 355 355 356 358 359 358 360 362 362 360 358 360 362 362 362 362 361 360 361 363
364 365 364 364 364 363 362 361 361 361 359 359 358 357 358 359 359 360 358 357 358 356 356 356 356 358 359 359 359 361 362 360 358 359 361 362 362 363 362 361 361 362
365 364 364 363 363 363 361 360 360 361 360 360 359 357 358 360 360 360 359 360 359 358 358 358 358 358 360 360 359 360 362 362 359 359 360 361 362 362 361 361 361 362
366 364 363 364 362 361 361 359 357 360 361 362 360 356 357 360 360 361 361 362 361 361 361 361 360 360 360 360 359 360 361 362 361 359 360 361 362 362 361 360 361 361
366 365 364 363 361 360 360 359 356 358 360 361 360 357 356 359 361 360 361 363 364 362 362 362 363 363 362 361 359 359 360 361 360 360 359 360 361 362 362 361 360 360
366 365 363 362 361 360 359 358 357 356 357 360 361 359 356 357 359 360 360 363 365 364 363 363 365 364 364 364 361 358 360 362 360 359 359 360 360 361 361 359 359 360
367 365 362 361 362 361 359 358 357 355 355 358 360 359 357 355 357 360 360 362 365 365 363 364 365 366 365 366 364 360 359 360 362 359 358 358 360 361 360 357 356 356
367 366 363 363 363 361 359 358 358 356 354 357 359 360 358 356 355 357 359 361 363 365 364 363 365 367 366 366 366 364 360 359 362 362 359 358 359 359 359 357 354 352
369 367 365 364 363 363 362 359 359 358 356 356 360 360 359 356 355 355 358 360 362 364 365 363 363 365 366 366 366 365 363 360 360 363 362 359 357 359 358 356 354 351
370 369 367 365 364 364 363 361 359 359 358 357 360 361 360 358 356 355 356 359 361 363 364 364 363 364 365 365 363 363 364 362 359 361 363 361 359 358 357 355 354 352
371 370 369 367 365 365 365 363 361 360 360 360 360 363 362 360 358 358 357 358 360 362 363 364 364 363 364 364 363 361 361 362 360 359 361 362 361 358 357 357 356 354
371 371 370 368 367 367 366 366 363 362 361 361 362 363 364 362 361 359 359 359 359 360 362 363 363 363 362 363 363 360 357 358 360 359 359 360 360 359 358 357 357 355
372 372 371 370 369 368 368 367 365 364 364 363 363 364 365 364 362 361 362 361 360 361 361 363 363 363 363 362 362 361 358 355 356 358 358 358 359 359 358 358 357 358
372 372 371 372 370 370 370 369 366 365 365 363 363 364 366 367 365 363 363 363 362 361 361 363 364 363 363 363 361 361 359 357 355 356 356 357 358 359 360 360 360 360
372 372 372 373 371 370 370 370 368 368 366 365 363 364 366 367 366 365 365 365 364 362 361 362 364 363 363 363 362 361 359 357 357 357 357 357 357 359 361 362 362 362
372 372 372 372 371 371 371 371 370 369 368 367 365 363 363 366 367 365 365 365 365 364 363 362 362 363 362 362 362 362 360 358 358 359 360 359 358 359 361 362 363 363
371 372 372 371 373 372 371 371 370 369 369 368 366 363 361 363 365 366 365 365 366 365 364 363 362 361 362 361 362 362 360 359 359 360 361 361 361 361 362 362 363 363
370 371 372 372 372 371 370 371 370 370 369 369 366 364 361 360 362 365 365 365 365 364 364 364 362 361 361 362 361 361 360 359 360 361 362 362 362 362 362 363 363 364
371 372 372 371 372 371 370 370 370 369 370 368 366 365 362 360 361 363 364 365 363 362 363 364 364 363 361 361 361 361 360 360 361 362 362 362 364 363 363 364 364 363
Wind_Speed
24 23 23 22 21 20 20 19 18 18 18 17 16 15 15 14 14 13 13 13 13 12 11 10 9 9 8 7 7 7 6 6 7 6 7 7 6 6 6 6 5 4
25 23 23 22 22 21 21 20 19 18 18 18 17 15 15 15 15 15 14 13 13 13 12 12 11 10 9 9 8 8 8 8 8 7 7 7 7 7 6 6 6 5
26 24 24 23 23 23 22 21 20 19 18 18 18 16 15 15 16 16 15 15 14 13 13 13 12 11 11 10 10 9 9 9 9 8 8 8 7 7 7 7 6 6
28 26 25 24 24 23 23 21 20 20 18 18 18 18 16 16 16 16 16 16 15 14 13 13 13 13 12 11 11 10 10 10 10 9 8 8 8 8 7 7 7 6
29 27 26 25 24 23 23 23 22 21 20 19 18 19 18 17 17 17 17 17 16 15 14 14 14 13 13 13 12 11 11 10 10 10 10 9 9 9 8 8 7 7
29 28 27 25 25 24 24 24 23 22 21 20 19 19 19 19 19 18 18 18 17 17 16 15 15 14 13 13 13 12 11 11 11 11 11 11 10 10 9 8 8 8
30 30 28 26 25 25 24 24 24 23 22 21 20 20 20 20 20 20 19 19 18 17 17 16 16 15 14 14 13 13 12 11 11 11 12 11 11 11 10 9 9 9
31 30 29 27 26 26 25 24 24 24 23 21 21 21 21 21 21 21 20 20 19 19 18 18 17 17 16 15 14 14 14 13 12 12 12 12 12 11 11 11 10 10
31 30 29 29 27 26 26 25 24 24 23 23 22 22 22 22 22 22 22 22 21 20 20 20 19 18 18 17 17 16 15 15 14 13 13 13 13 13 12 12 12 12
32 31 31 31 29 27 27 27 26 24 24 24 23 23 23 23 22 22 22 23 22 21 21 21 21 20 19 19 18 17 17 16 15 14 14 14 14 14 13 13 13 13
33 33 32 32 31 29 29 29 27 26 25 25 25 24 23 23 23 22 22 23 23 23 23 23 22 22 21 20 19 19 18 18 17 16 15 15 15 15 14 14 14 14
34 34 33 33 32 30 29 29 28 27 26 25 25 25 24 24 24 23 23 24 24 23 23 23 23 22 22 21 20 20 19 19 18 18 17 17 16 16 16 15 15 15
36 35 34 34 33 31 30 29 29 28 27 26 25 25 25 25 25 25 24 24 24 23 23 23 23 23 23 22 22 21 20 20 19 19 19 18 18 18 17 17 17 16
36 35 34 33 32 31 30 29 29 29 28 27 26 26 26 26 26 25 25 24 24 24 23 23 23 23 23 23 23 22 21 20 20 20 19 19 18 18 18 18 18 18
35 33 33 33 32 31 31 30 29 29 28 27 27 27 27 27 26 26 25 25 24 24 23 23 23 23 23 24 24 23 22 21 21 20 20 19 18 18 18 18 18 18
33 32 32 33 32 32 31 30 29 28 29 28 28 27 27 27 27 26 25 25 24 24 24 24 24 24 25 27 26 25 23 22 21 21 20 20 19 18 18 18 18 18
32 31 32 33 33 32 32 31 29 28 28 29 28 27 27 27 27 27 26 26 25 25 25 25 25 25 27 29 30 27 24 22 21 21 20 20 20 19 19 18 18 18
31 31 32 33 33 32 31 31 30 28 28 29 28 28 27 27 27 27 27 26 25 25 25 25 25 25 27 30 31 31 28 23 20 20 20 20 20 20 19 19 18 18
30 30 31 32 32 32 31 31 31 29 28 28 28 28 27 26 26 27 27 26 25 25 25 25 25 26 28 29 31 33 32 27 21 19 20 20 20 20 20 19 19 19
30 30 30 31 32 31 30 30 31 30 29 28 28 27 27 27 27 27 27 27 26 25 24 24 25 26 28 29 30 31 33 32 26 20 19 20 20 20 20 20 20 20
32 31 30 29 30 31 30 31 31 30 29 28 28 27 27 26 26 26 26 27 27 26 24 23 23 25 26 28 30 30 31 32 29 23 19 19 19 20 20 20 20 20
32 32 30 29 30 30 30 30 30 30 29 28 27 27 26 25 25 25 26 26 26 26 26 24 23 24 25 26 28 29 29 31 31 26 21 19 19 20 20 20 20 20
32 32 31 30 30 31 30 30 29 29 29 28 27 26 26 25 25 25 25 26 26 26 26 25 24 25 25 25 27 27 27 30 31 26 21 20 20 19 20 20 20 21
33 32 31 31 31 31 30 29 28 28 28 28 27 26 26 26 25 24 24 25 26 26 26 26 25 26 27 27 28 28 28 29 28 24 21 20 20 19 19 19 20 22
32 32 31 31 31 30 29 29 28 27 27 27 26 26 26 25 25 24 24 24 25 26 27 26 26 27 28 29 29 30 30 29 26 22 20 20 19 19 19 20 20 21
31 32 32 31 30 30 28 28 27 26 26 26 26 25 24 25 25 24 23 24 24 25 26 26 26 26 28 30 31 31 32 31 27 22 20 20 19 19 19 20 21 21
Wind_Direction
191 192 194 196 198 201 202 202 203 202 203 205 208 208 208 208 206 204 205 204 203 204 204 202 199 200 200 200 202 205 206 208 209 205 200 201 203 201 201 203 204 211
190 191 192 194 197 199 202 204 205 204 203 205 208 207 205 205 203 201 203 204 203 203 202 202 203 202 203 203 204 205 207 213 216 210 206 208 209 209 209 208 205 207
189 191 193 195 197 198 200 202 204 205 204 204 207 207 203 203 202 199 201 203 204 204 203 203 205 205 205 205 205 208 209 211 217 215 210 211 213 217 215 213 214 208
189 192 195 197 197 197 197 200 202 203 204 204 204 205 203 200 200 200 201 202 203 204 203 204 206 206 207 207 207 210 211 212 215 215 213 214 216 221 222 220 220 215
188 191 194 197 196 195 195 198 200 201 203 203 202 203 202 198 197 199 201 201 202 204 204 204 205 206 206 207 209 212 213 213 212 210 213 217 218 220 222 221 222 223
187 189 192 194 194 194 194 196 199 200 201 202 201 201 200 197 197 199 200 201 203 206 206 205 205 206 207 207 210 213 216 218 212 207 211 217 219 222 222 220 222 224
186 188 190 192 193 193 193 195 197 199 201 201 201 201 199 198 198 200 200 201 204 207 208 208 206 206 207 208 211 214 216 219 217 211 212 216 219 223 225 224 222 222
185 187 188 191 193 192 193 195 195 197 198 198 199 200 199 199 199 200 201 201 203 205 207 208 207 206 207 208 211 213 214 217 218 214 214 217 220 222 224 225 224 224
185 186 188 190 192 193 194 196 196 196 197 197 199 199 199 201 201 201 201 200 202 203 203 206 207 206 208 209 211 213 215 217 217 216 217 219 221 222 223 224 224 225
185 186 188 190 192 194 195 196 196 196 196 197 199 200 200 200 202 202 200 200 201 201 200 202 204 205 207 208 210 212 215 217 218 218 219 220 223 224 224 224 225 226
186 187 189 190 193 195 196 197 197 196 196 196 199 202 201 199 200 202 200 199 200 200 199 200 201 203 205 207 209 211 213 216 217 219 221 222 223 225 225 225 226 227
187 188 190 191 193 195 196 197 198 197 196 196 198 201 201 200 199 200 201 200 200 200 200 199 200 201 203 205 208 210 212 215 217 218 221 223 224 225 226 226 227 228
188 189 191 193 193 195 196 197 198 198 197 197 198 199 201 201 199 199 200 201 200 201 201 200 200 201 202 204 207 209 211 213 216 217 218 221 223 225 226 226 227 228
189 189 191 192 193 194 196 196 198 199 198 197 196 198 201 202 201 199 199 201 201 201 201 201 201 202 203 203 205 207 209 211 214 216 217 219 222 224 227 229 229 230
187 187 189 191 192 194 196 197 198 199 198 197 197 199 201 202 203 200 199 202 202 201 202 203 203 204 204 203 203 204 207 210 211 213 216 218 220 223 226 229 231 233
185 185 186 189 191 193 195 197 197 198 198 198 198 200 201 202 204 204 202 202 203 203 203 204 206 207 206 205 204 203 204 207 210 211 214 216 218 222 226 228 231 234
183 183 184 187 189 191 192 195 197 198 199 198 198 199 201 202 204 205 205 204 204 205 205 206 209 210 209 207 207 206 204 205 209 209 212 215 216 220 225 228 231 234
183 183 183 184 186 188 189 191 194 198 199 198 198 199 200 202 203 205 207 207 206 206 207 209 211 212 212 210 209 210 207 205 209 211 211 214 216 218 222 226 230 233
183 183 182 182 183 185 186 188 191 196 198 198 199 198 198 201 203 204 206 208 209 209 210 212 214 214 213 212 212 213 211 208 209 214 214 215 217 218 221 224 227 230
183 184 183 182 181 182 183 185 189 193 196 198 198 198 198 200 203 204 206 209 211 212 213 214 217 217 215 214 214 216 215 213 213 217 219 219 220 221 222 223 225 227
184 186 184 181 181 181 182 184 187 190 195 197 199 199 199 200 203 205 206 208 210 213 215 216 218 220 217 215 216 218 218 217 217 221 225 225 223 223 223 224 224 225
184 185 184 181 181 182 182 184 186 188 192 196 199 202 201 200 203 205 206 208 210 213 216 218 220 221 220 216 217 218 218 218 219 222 228 230 227 225 224 225 224 224
184 184 183 181 181 183 184 184 185 187 190 194 198 202 203 202 204 207 208 209 210 211 214 217 220 222 221 218 217 215 214 216 218 220 226 230 230 228 225 225 226 225
186 184 183 182 183 184 185 185 185 186 189 192 197 203 206 206 206 208 209 210 211 212 212 215 221 223 221 219 217 215 214 214 215 216 222 226 228 229 227 227 228 227
186 185 184 183 184 186 187 186 184 186 189 192 198 204 208 210 210 210 211 212 213 215 214 214 219 224 222 220 218 217 216 213 210 212 217 221 224 226 227 228 231 231
186 186 185 185 185 186 187 187 185 186 189 192 198 203 207 211 212 212 214 215 216 218 216 215 218 222 222 221 219 219 218 213 208 209 214 217 218 221 224 227 230 232